"Pseudo-MPEC" for C15UC95

Created 2025 Oct 4 13:35:06 UT using Find_Orb

Click here for an explanation of pseudo-MPECs

 
 Astrometry: 
     C15UC95* C2025 10 02.36975901 45 09.907+18 42 15.05   ~A29o 22.04GVNEOCPV00
     C15UC95  C2025 10 02.37534701 45 10.285+18 41 36.71   ~A29o 22.22GVNEOCPV00
     C15UC95  C2025 10 02.38098501 45 10.613+18 40 58.26   ~A29o 23.09GVNEOCPV00
     C15UC95  C2025 10 02.38657401 45 10.926+18 40 20.03   ~A29o 22.09GVNEOCPV00
     C15UC95 KC2025 10 02.46019401 45 15.512+18 31 53.54   ~A2BZ 22.07GVNEOCPV06
     C15UC95 KC2025 10 02.46625301 45 15.898+18 31 11.78   ~A2BZ 22.29GVNEOCPV06
     C15UC95 KC2025 10 02.47231501 45 16.297+18 30 30.10   ~A2BZ 22.16GVNEOCPV06
     C15UC95 KC2025 10 03.25431101 46 17.569+17 00 14.23   ~A36Z 21.8 GWNEOCPH01
     C15UC95 KC2025 10 03.25505401 46 16.87 +17 00 06.6    ~A36o 22.5 GVNEOCPH21
     C15UC95 KC2025 10 03.26083101 46 17.21 +16 59 26.4    ~A36o 22.1 GVNEOCPH21
     C15UC95 KC2025 10 03.26118201 46 17.970+16 59 26.19   ~A36Z 22.4 GWNEOCPH01
     C15UC95 KC2025 10 03.26477801 46 17.43 +16 58 58.6    ~A36o 22.2 GVNEOCPH21
     C15UC95  C2025 10 04.20683001 47 27.550+15 07 51.40   ~A45o 22.1 RVNEOCP291
     C15UC95  C2025 10 04.21826001 47 28.180+15 06 29.70   ~A45o 23.4 RVNEOCP291

Station data:
(291) LPL/Spacewatch II  (N31.961669 W111.599905)  US/Arizona.  Observers J.
   V. Scotti, R. S. McMillan. 1.8-m f/2.7 reflector + CCD.
(H01) Magdalena Ridge Observatory, Socorro  (N33.984833 W107.189333)  US/New
   Mexico.  Observers W. H. Ryan, E. V. Ryan. Measurer W. H. Ryan. 2.4-m
   f/8.9 reflector + CCD.
(H21) Astronomical Research Observatory, Westfield  (N39.483054 W87.968270)
   US/Illinois.  Observer R. Holmes. Measurers S. Foglia, L. Buzzi, T.
   Linder, R. Holmes. 0.40-m f/5.32 astrograph + CCD.
(V00) Kitt Peak-Bok  (N31.963125 W111.600190)  US/Arizona. Measurers T.
   Beuden, V. F. Carvajal, D. Fay, J. B. Fazekas, D. C. Fuls, A. R. Gibbs, A.
   D. Grauer, H. Gröller, J. K. Hogan, R. A. Kowalski, S. M. Larson, G. J.
   Leonard, D. Rankin, R. L. Seaman, F. C. Shelly, K. W. Wierzchoś. 2.25-m
   reflector + 4x4K mosaic CCD.
(V06) Catalina Sky Survey-Kuiper  (N32.416871 W110.732550)  US/Arizona.
   Measurers T. Beuden, V. F. Carvajal, D. Fay, J. B. Fazekas, D. C. Fuls, A.
   R. Gibbs, A. D. Grauer, H. Gröller, J. K. Hogan, R. A. Kowalski, S. M.
   Larson, G. J. Leonard, D. Rankin, R. L. Seaman, F. C. Shelly, K. W.
   Wierzchoś. 1.55-m reflector + CCD.

Orbital elements:  C15UC95
   Perihelion 2025 Oct 14.745559 +/- 0.335 TT = 17:53:36.3 (JD 2460963.245559)
Epoch 2025 Oct  4.0 TT = JDT 2460952.5   Earth MOID: 0.2070   Ma: 0.0729
M 353.946907193 +/- 0.24            (J2000 ecliptic)             AutoNEOCP
n   0.563311108 +/- 0.00862         Peri.  186.962731 +/- 0.27
a   1.452013002 +/- 0.0148          Node   195.671266 +/- 0.036
e   0.17034747 +/- 0.00632          Incl.   26.431481 +/- 0.38
P   1.750/639.066d         H 24.56  G  0.15   U  9.5
q 1.204666253 +/- 0.00311    Q 1.699359750 +/- 0.0265
From 14 observations 2025 Oct. 2-4 (44.4 hr); mean residual 0".21
Residuals in arcseconds: 
251002 V00  .09-  .03-    251002 V06  .10-  .00     251003 H01  .27-  .17-    
251002 V00  .43+  .13-    251002 V06  .01-  .14+    251003 H21  .21-  .03-    
251002 V00  .20+  .02+    251003 H01  .01-  .01-    251004 291  .62+  .21+    
251002 V00  .21-  .07+    251003 H21  .18+  .00     251004 291  .48-  .18-    
251002 V06  .03-  .02-    251003 H21  .05+  .17+    

Ephemerides (geocentric):
Date (UTC) HH   RA             Dec           delta  r     elong  mag " sig PA
---- --------  ------------   ------------  ------ ------ -----  --- --------
2025 10 04 14  01 47 52.442   +14 23 01.51  .21612 1.2065 160.8 22.5 .672 105
2025 10 04 15  01 47 55.387   +14 18 00.90  .21604 1.2064 160.9 22.5 .693 104
2025 10 04 16  01 47 58.327   +14 13 00.04  .21596 1.2064 161.0 22.5 .715 103
2025 10 04 17  01 48 01.263   +14 07 58.92  .21588 1.2064 161.1 22.5 .736 103
2025 10 04 18  01 48 04.196   +14 02 57.56  .21581 1.2064 161.1 22.5 .758 102
2025 10 04 19  01 48 07.124   +13 57 55.95  .21573 1.2064 161.2 22.5 .781 101
2025 10 04 20  01 48 10.049   +13 52 54.09  .21566 1.2064 161.3 22.5 .804 101
2025 10 04 21  01 48 12.969   +13 47 51.99  .21558 1.2064 161.3 22.5 .827 100
2025 10 04 22  01 48 15.885   +13 42 49.65  .21551 1.2063 161.4 22.5 .850 100
2025 10 04 23  01 48 18.797   +13 37 47.07  .21543 1.2063 161.5 22.5 .874  99
2025 10 05 00  01 48 21.705   +13 32 44.25  .21536 1.2063 161.5 22.5 .898  98
2025 10 05 01  01 48 24.609   +13 27 41.19  .21529 1.2063 161.6 22.5 .922  98
2025 10 05 02  01 48 27.510   +13 22 37.90  .21522 1.2063 161.7 22.5 .947  97
2025 10 05 03  01 48 30.406   +13 17 34.38  .21515 1.2063 161.8 22.5 .972  97
2025 10 05 04  01 48 33.298   +13 12 30.62  .21508 1.2063 161.8 22.5 1.00  96
2025 10 05 05  01 48 36.186   +13 07 26.64  .21501 1.2062 161.9 22.5 1.02  96
2025 10 05 06  01 48 39.069   +13 02 22.43  .21494 1.2062 162.0 22.5 1.05  96
2025 10 05 07  01 48 41.949   +12 57 17.99  .21487 1.2062 162.0 22.5 1.08  95
2025 10 05 08  01 48 44.825   +12 52 13.33  .21480 1.2062 162.1 22.5 1.10  95
2025 10 05 09  01 48 47.697   +12 47 08.45  .21473 1.2062 162.2 22.4 1.13  94
2025 10 05 10  01 48 50.565   +12 42 03.35  .21467 1.2062 162.2 22.4 1.16  94
2025 10 05 11  01 48 53.429   +12 36 58.03  .21460 1.2062 162.3 22.4 1.18  94
2025 10 05 12  01 48 56.288   +12 31 52.50  .21453 1.2061 162.4 22.4 1.21  93
2025 10 05 13  01 48 59.144   +12 26 46.75  .21447 1.2061 162.4 22.4 1.24  93
2025 10 05 14  01 49 01.996   +12 21 40.79  .21440 1.2061 162.5 22.4 1.27  93
2025 10 05 15  01 49 04.844   +12 16 34.62  .21434 1.2061 162.6 22.4 1.30  92
2025 10 05 16  01 49 07.687   +12 11 28.24  .21428 1.2061 162.6 22.4 1.33  92
2025 10 05 17  01 49 10.527   +12 06 21.66  .21422 1.2061 162.7 22.4 1.36  92
2025 10 05 18  01 49 13.363   +12 01 14.87  .21415 1.2061 162.7 22.4 1.39  92
2025 10 05 19  01 49 16.194   +11 56 07.88  .21409 1.2061 162.8 22.4 1.42  91
2025 10 05 20  01 49 19.022   +11 51 00.69  .21403 1.2060 162.9 22.4 1.45  91
2025 10 05 21  01 49 21.845   +11 45 53.31  .21397 1.2060 162.9 22.4 1.48  91
2025 10 05 22  01 49 24.665   +11 40 45.72  .21391 1.2060 163.0 22.4 1.51  90
2025 10 05 23  01 49 27.480   +11 35 37.95  .21385 1.2060 163.1 22.4 1.54  90
2025 10 06 00  01 49 30.292   +11 30 29.98  .21380 1.2060 163.1 22.4 1.57  90
2025 10 06 01  01 49 33.099   +11 25 21.82  .21374 1.2060 163.2 22.4 1.60  90
2025 10 06 02  01 49 35.903   +11 20 13.47  .21368 1.2060 163.2 22.4 1.64  90
2025 10 06 03  01 49 38.702   +11 15 04.94  .21363 1.2060 163.3 22.4 1.67  89
2025 10 06 04  01 49 41.498   +11 09 56.22  .21357 1.2059 163.4 22.4 1.70  89
2025 10 06 05  01 49 44.289   +11 04 47.33  .21352 1.2059 163.4 22.4 1.73  89
2025 10 06 06  01 49 47.077   +10 59 38.25  .21346 1.2059 163.5 22.4 1.77  89
2025 10 06 07  01 49 49.860   +10 54 28.99  .21341 1.2059 163.5 22.4 1.80  89
2025 10 06 08  01 49 52.640   +10 49 19.56  .21336 1.2059 163.6 22.4 1.84  89
2025 10 06 09  01 49 55.415   +10 44 09.96  .21330 1.2059 163.7 22.4 1.87  88
2025 10 06 10  01 49 58.187   +10 39 00.18  .21325 1.2059 163.7 22.4 1.90  88
2025 10 06 11  01 50 00.954   +10 33 50.24  .21320 1.2059 163.8 22.4 1.94  88
2025 10 06 12  01 50 03.718   +10 28 40.13  .21315 1.2058 163.8 22.4 1.97  88
2025 10 06 13  01 50 06.477   +10 23 29.85  .21310 1.2058 163.9 22.4 2.01  88